TimeCET,TemperatureF,Dew PointF,Humidity,Sea Level PressureIn,VisibilityMPH,Wind Direction,Wind SpeedMPH,Gust SpeedMPH,PrecipitationIn,Events,Conditions,WindDirDegrees,DateUTC
12:00 AM,24.8,23.0,93,30.30,5.0,SE,3.5,-,N/A,,Overcast,140,2013-01-07 23:00:00
1:00 AM,24.8,23.0,93,30.30,5.0,SSE,3.5,-,N/A,,Mostly Cloudy,150,2013-01-08 00:00:00
2:00 AM,24.8,23.0,93,30.30,5.0,SE,3.5,-,N/A,,Overcast,130,2013-01-08 01:00:00
3:00 AM,24.8,23.0,93,30.30,5.0,SE,3.5,-,N/A,,Overcast,130,2013-01-08 02:00:00
4:00 AM,24.8,23.0,93,30.27,5.0,SE,2.3,-,N/A,,Overcast,130,2013-01-08 03:00:00
5:00 AM,24.8,23.0,93,30.27,5.0,SE,3.5,-,N/A,,Overcast,140,2013-01-08 04:00:00
6:00 AM,24.8,23.0,93,30.24,5.6,SE,3.5,-,N/A,,Overcast,130,2013-01-08 05:00:00
7:00 AM,24.8,23.0,93,30.24,3.1,South,3.5,-,N/A,,Overcast,180,2013-01-08 06:00:00
9:00 AM,24.8,23.0,93,30.24,2.5,South,3.5,-,N/A,Snow,Light Snow,180,2013-01-08 08:00:00
9:11 AM,24.8,24.8,100,30.24,1.6,Variable,2.3,-,N/A,Snow,Light Snow,0,2013-01-08 08:11:00
9:26 AM,26.6,24.8,93,30.24,0.9,Variable,2.3,-,N/A,Snow,Light Snow,0,2013-01-08 08:26:00
10:00 AM,26.6,24.8,93,30.24,0.9,South,3.5,-,N/A,Snow,Light Snow,190,2013-01-08 09:00:00
11:00 AM,26.6,24.8,93,30.24,0.7,South,3.5,-,N/A,Snow,Light Snow,190,2013-01-08 10:00:00
12:00 PM,26.6,24.8,93,30.21,0.9,South,4.6,-,N/A,Snow,Light Snow,180,2013-01-08 11:00:00
1:00 PM,26.6,26.6,100,30.18,0.9,SE,3.5,-,N/A,Snow,Light Snow,130,2013-01-08 12:00:00
2:00 PM,26.6,24.8,93,30.15,0.9,SSE,3.5,-,N/A,,Overcast,150,2013-01-08 13:00:00
3:00 PM,26.6,26.6,100,30.15,0.6,SE,3.5,-,N/A,,Overcast,130,2013-01-08 14:00:00
5:00 PM,26.6,24.8,93,30.15,0.6,ESE,2.3,-,N/A,,Overcast,120,2013-01-08 16:00:00
5:22 PM,26.6,24.8,93,30.15,0.6,Variable,2.3,-,N/A,Fog,Light Freezing Fog,0,2013-01-08 16:22:00
5:32 PM,26.6,24.8,93,30.15,0.4,SSE,1.2,-,N/A,Fog,Freezing Rain,150,2013-01-08 16:32:00
6:46 PM,26.6,26.6,100,30.15,0.6,Variable,1.2,-,N/A,,Freezing Rain,0,2013-01-08 17:46:00
8:00 PM,26.6,26.6,100,30.15,0.7,SSW,2.3,-,N/A,,Freezing Rain,210,2013-01-08 19:00:00
9:00 PM,28.4,28.4,100,30.15,0.7,WSW,1.2,-,N/A,,Freezing Rain,240,2013-01-08 20:00:00
10:00 PM,30.2,30.2,100,30.12,0.8,West,3.5,-,N/A,,Freezing Rain,280,2013-01-08 21:00:00
11:00 PM,32.0,32.0,100,30.12,0.6,WNW,5.8,-,N/A,,Light Drizzle,290,2013-01-08 22:00:00